Location: Aulnoy
(48.8410°N, 3.0967°E)
Time: 13:02:22
(UTC+00:00)

Cosmos 1602 Rocket - Pass Details

Date: 09 February 2023
Orbit: 603 x 630 km, 82.5° (Epoch: 23 March)

Event Time Altitude Azimuth Distance (km) Brightness Sun altitude
Rises 18:47:57 0° 186° (S) 2,846 7.1 -18.5°
Reaches altitude 10° 18:50:09 10° 185° (S) 1,946 6.2 -18.8°
Maximum altitude 18:54:27 83° 100° (E) 616 3.4 -19.5°
Drops below altitude 10° 18:58:48 10° 11° (N) 1,964 6.0 -20.3°
Sets 19:01:02 0° 11° (N) 2,875 6.9 -20.6°
